Starlink 5018

operational
NORAD ID: 53929 Int'l Des: 2022-119 Owner: SPXS Country: US Constellation: starlink
LEOCIRCULAR

关于 Starlink 5018

正在加载描述...

实时位置

正在加载3D地球...

即将过境

高度历史

Altitude vs Time

uPlot chart will show altitude changes over time

两行轨道根数

1 53929U 22119AV 25261.29508467 .00000514 00000-0 50350-4 0 9997
2 53929 53.2188 8.4064 0001149 91.5316 268.5808 15.08835331165791
Epoch: Sep 18, 2025 • Age: 3 hours

当前状态

高度 544.5 km
速度 7.60 km/s
星下点 48.35°N, 91.59°W
发射日期 Sep 24, 2022
运行时间 2.9 years
类型 internet

技术详情

分类 Payload
质量 305.00 kg
干质量 290.00 kg
总质量 305.00 kg
长度 0.20 m
直径 2.80 m
跨度 9.00 m
形状 Box + pan
制造商 SPXS
平台类型 Starlink
阶段状态 In Orbit
所有者/国家 SPXS/US

大型星座

Loading constellations...